Terug naar catalogus

STARLINK-6146

ActiefCommunicatieVLEO
NORAD 57124·PAYLOAD·🇺🇸 United States

Gelanceerd Jun 23, 2023 vanaf Cape Canaveral Space Force Station

Loading…

Volgende Passages (komende 24 uur)

TLE

VersSource: CelesTrak SupGP

Epoch: Sep 15, 2026, 02:02 UTC

1 57124C 23090Z   26258.08520833  .00016214  00000+0  58742-3 0  2585
2 57124  42.9999 291.9122 0001438 264.6495 266.5104 15.27561113    18

Volg STARLINK-6146 in realtime met AllMySat

Download on the App Store